Location: Gipe Farm
(40.9466°N, 95.5370°W)
Time: 23:27:22
(UTC-06:00)

Daily predictions for brighter satellites

Satellite Brightness Start Highest point End
(mag) Time Altitude Azimuth Time Altitude Azimuth Time Altitude Azimuth
Cosmos 1818 3.7 18:28:55 10° SSW 18:34:23 85° NW 18:39:52 10° NNE
Cosmos 676 Rocket 4.0 18:30:01 10° S 18:35:10 70° ESE 18:40:22 10° NNE
ALOS 3.3 18:32:07 10° ESE 18:35:57 26° ENE 18:39:48 10° NNE
Cosmos 1709 Rocket 4.1 18:31:59 10° SSE 18:38:01 55° E 18:44:00 10° NNE
COSMOS 2428 3.7 18:33:51 10° N 18:38:35 26° NE 18:43:18 10° ESE
Abrixas rocket 3.9 18:36:06 10° S 18:38:36 20° SE 18:41:07 10° E
Cosmos 2237 Rocket 4.1 18:38:15 10° NNE 18:39:08 10° NE 18:40:00 10° NE
Meteor 1-13 Rocket 4.5 18:34:02 10° N 18:39:23 46° ENE 18:44:47 10° SSE
H-2A R/B 4.4 18:37:39 10° E 18:39:43 14° ENE 18:41:48 10° NNE
Meteor 2-4 Rocket 4.4 18:38:10 10° N 18:43:01 30° ENE 18:47:44 10° SE
Cosmos 1812 3.4 18:39:16 10° NNW 18:43:05 59° W 18:46:52 10° S
Okean 1 Rocket 3.9 18:39:12 10° SSE 18:43:08 30° E 18:47:03 10° NNE
Cosmos 2151 Rocket 3.7 18:40:29 10° S 18:44:59 90° SE 18:49:33 10° N
FREGAT/IRIS 3.2 18:42:45 10° SE 18:45:37 36° ENE 18:48:29 10° N
Cosmos 1140 Rocket 3.6 18:41:05 10° S 18:46:02 52° ESE 18:51:03 10° NNE
Cosmos 1536 3.8 18:43:46 10° SE 18:47:02 25° E 18:50:19 10° NE
Okean 1 3.5 18:47:07 10° N 18:51:12 79° W 18:55:14 10° S
ATLAS CENTAUR R/B 3.8 18:50:29 10° SSE 18:51:22 10° SE 18:52:09 10° SE
Cosmos 614 Rocket 4.3 18:46:45 10° S 18:51:31 43° ESE 18:56:18 10° NNE
Tiangong 2 3.3 18:52:01 10° W 18:54:28 21° SSW 18:56:53 10° SSE
Cosmos 2360 Rocket 2.2 18:48:49 10° NNW 18:54:29 70° ENE 19:00:07 10° SSE
CZ-3C R/B 4.0 18:51:04 10° SW 18:54:58 12° SSW 18:57:30 10° S
Cosmos 2219 Rocket 3.5 18:51:04 10° N 18:55:11 20° NE 18:58:31 13° E
DELTA 2 R/B (1) 4.2 18:51:22 10° W 18:56:50 54° SSW 19:02:17 10° ESE
Cosmos 2219 3.8 18:52:49 10° S 18:58:01 36° ESE 19:03:14 10° NE
Cosmos 1025 Rocket 4.1 18:54:45 10° NNE 18:58:23 25° ENE 19:02:01 10° SE
Spot 2 Rocket 4.0 19:00:20 10° SE 19:04:59 38° ENE 19:09:40 10° N
NOSS 8 (E) 4.4 19:02:12 10° SSW 19:05:38 74° ESE 19:09:20 10° NE
USA 229 DEB 4.3 18:59:34 10° NNW 19:06:15 41° NE 19:12:08 14° ESE
USA 229 4.3 18:59:40 10° NNW 19:06:20 41° NE 19:12:11 14° ESE
Cosmos 2208 Rocket 4.3 19:07:14 10° N 19:12:33 50° ENE 19:17:46 10° SE
Okean 1-7 Rocket 3.8 19:08:43 10° N 19:13:06 48° ENE 19:17:25 10° SSE
Cosmos 1602 3.8 19:09:30 10° S 19:13:22 81° W 19:17:18 10° N
Meteor 1-11 Rocket 3.8 19:10:21 10° S 19:16:09 81° E 19:22:05 10° NNE
Cosmos 1850 Rocket 4.0 19:12:23 10° S 19:17:37 65° ESE 19:22:54 10° NNE
NOSS 8 (H) 4.3 19:16:43 10° SSW 19:20:05 74° ESE 19:22:57 15° NE
Envisat 4.3 19:21:24 19° ENE 19:21:37 19° ENE 19:25:06 10° NNE
HJ-1C 3.2 19:18:39 10° SSE 19:22:00 73° ENE 19:25:23 10° N
Cosmos 1340 3.9 19:20:55 10° NNW 19:24:34 45° W 19:28:10 10° SSW
Cosmos 1238 Rocket 2.9 19:21:58 10° NNW 19:24:52 52° W 19:27:47 10° S
Cosmos 2333 Rocket 3.0 19:28:12 10° N 19:33:20 32° ENE 19:35:00 27° E
SAR-Lupe-4 3.8 19:35:06 41° E 19:35:39 44° ENE 19:39:04 10° N
SL-19 R/B 4.3 19:32:08 10° SSE 19:37:48 83° ENE 19:43:53 10° NNW
Genesis I 3.5 19:43:00 10° NW 19:46:55 65° WSW 19:49:01 25° SSE
FENGYUN 3A 4.0 19:44:11 10° S 19:49:32 65° WSW 19:54:57 10° NNW
Resurs 01 Rocket 1.8 19:45:34 10° S 19:49:57 72° WSW 19:54:23 10° NNW
Helios 1A 2.9 19:50:40 48° SE 19:51:31 61° ENE 19:55:38 10° N
Meteor 1-5 Rocket 4.3 19:51:06 10° S 19:57:05 89° W 20:03:01 10° N
Hubble Space Telescope 3.2 19:56:42 10° S 19:57:31 11° S 19:57:31 11° S
GPS 2-04 Rocket1 3.6 19:54:40 10° WSW 19:58:40 37° S 19:58:47 37° SSE
Cosmos 1610 Rocket 4.3 19:52:30 10° S 19:58:40 70° E 20:04:49 10° NNE
Helios 1B rocket 2.3 19:56:02 10° NNE 20:00:12 70° ESE 20:04:20 10° S
Okean 2 3.2 19:56:38 10° N 20:00:50 83° E 20:01:43 54° SSE
GEOS 3 Rocket 3.7 19:56:37 13° NNE 20:01:15 77° NW 20:06:32 10° SW
Resurs 1-3 4.1 20:00:54 10° S 20:05:12 58° W 20:09:33 10° NNW
Spot 1 3.9 20:06:58 58° S 20:07:43 82° WSW 20:11:54 10° NNW
Cosmos 405 Rocket 3.3 20:06:18 10° N 20:09:28 51° N 20:09:28 51° N
CZ-2D R/B 3.7 20:09:06 35° SSW 20:10:27 58° W 20:14:15 10° NNW
ALOS 4.0 20:09:06 10° SSW 20:13:15 32° W 20:17:27 10° NNW
H-2A R/B 4.1 20:10:13 10° SSW 20:13:40 37° W 20:17:11 10° NNW
Abrixas rocket 3.7 20:11:53 10° WSW 20:14:08 37° W 20:14:08 37° W
Gbstr 26 Del rocket 4.0 20:12:10 10° W 20:15:34 32° NNW 20:15:48 32° NNW
BREEZE-M DEB (TANK) 3.2 20:15:53 10° WNW 20:18:54 60° SSW 20:19:59 48° SSE
BREEZE-M DEB (TANK) 4.4 20:19:07 10° WSW 20:20:49 25° W 20:20:49 25° W
COSMOS 2428 3.6 20:17:38 10° NW 20:23:05 48° WSW 20:27:30 15° S
Cosmos 2237 Rocket 2.4 20:18:50 10° NNW 20:23:53 55° NE 20:23:53 55° NE
Atlas Centaur 2 4.5 20:22:23 10° S 20:23:41 12° S 20:23:41 12° S
Cosmos 1892 Rocket 3.9 20:21:16 10° NNW 20:25:08 63° NW 20:25:08 63° NW
Cosmos 2219 Rocket 2.5 20:34:03 10° NNW 20:39:36 63° WSW 20:40:18 58° SSW
Cosmos 468 Rocket 4.3 20:37:27 10° NNW 20:42:32 64° W 20:42:32 64° W
Cosmos 2227 Rocket 3.6 20:40:53 10° SSW 20:43:12 26° SSW 20:43:12 26° SSW
Nadezhda 3 Rocket 4.1 20:41:13 10° NNW 20:47:21 70° W 20:48:47 52° SSW
Cosmos 2341 Rocket 4.0 20:52:56 80° WNW 20:52:56 80° WNW 20:59:16 10° N
SL-16 R/B 3.7 20:53:17 10° NNW 20:55:51 26° N 20:55:51 26° N
Envisat 4.1 21:01:35 41° NW 21:01:35 41° NW 21:05:11 10° NNW
NOSS 3-1 (A) 4.0 21:02:42 10° NNW 21:09:35 72° N 21:09:35 72° N
ATLAS 2AS CENTAUR R/B 4.1 21:08:49 10° NNW 21:14:31 31° NNE 21:14:31 31° NNE
Cosmos 2333 Rocket 3.5 21:12:21 10° NW 21:17:04 37° W 21:17:04 37° W
NOSS 3-1 (C) 4.3 21:21:39 10° NW 21:28:32 65° W 21:28:32 65° W
